Location: Unspecified
(58.9933°N, 5.6375°E)
Time: 06:15:00
(UTC+02:00)

Cosmos 2058 - Visible Passes

Search period start: 24 October 2017 00:00
Search period end: 02 November 2017 23:00
Orbit: 564 x 584 km, 82.5° (Epoch: 23 October)

Date Brightness Start Highest point End Pass type
(mag) Time Alt. Az. Time Alt. Az. Time Alt. Az.
24 Oct 6.8 06:29:28 10° E 06:29:54 10° ENE 06:30:21 10° ENE visible
24 Oct 4.7 19:32:09 10° NNW 19:36:00 36° W 19:39:48 10° SSW visible
25 Oct 6.4 06:31:15 10° ESE 06:33:02 12° ENE 06:34:49 10° NE visible
25 Oct 5.2 19:35:33 10° NNW 19:39:12 29° W 19:42:49 10° SSW visible
26 Oct 6.3 06:33:45 10° ESE 06:36:11 15° E 06:38:37 10° NE visible
26 Oct 5.5 19:39:00 10° NNW 19:42:24 24° W 19:45:46 10° SW visible
27 Oct 6.0 06:36:27 10° SE 06:39:20 18° E 06:42:14 10° NE visible
27 Oct 5.9 19:42:30 10° NW 19:45:36 20° W 19:48:39 10° SW visible
28 Oct 5.7 06:39:16 10° SE 06:42:30 22° E 06:45:45 10° NE visible
28 Oct 6.1 19:46:04 10° NW 19:48:45 17° W 19:51:25 10° WSW visible
29 Oct 5.3 05:42:11 10° SE 05:45:41 26° E 05:49:13 10° NNE visible
29 Oct 6.3 18:49:45 10° NW 18:51:54 14° W 18:54:02 10° WSW visible
30 Oct 4.9 05:45:09 10° SSE 05:48:53 32° E 05:52:39 10° NNE visible
30 Oct 6.5 18:53:42 10° WNW 18:55:01 11° WNW 18:56:20 10° W visible
31 Oct 4.5 05:48:12 10° SSE 05:52:07 38° E 05:56:02 10° NNE visible
01 Nov 4.0 05:51:18 10° S 05:55:21 47° E 05:59:24 10° NNE visible
01 Nov 4.5 17:21:28 10° NNW 17:25:25 42° W 17:29:18 10° SSW visible
02 Nov 6.5 04:21:41 10° E 04:22:33 11° ENE 04:23:24 10° ENE visible
02 Nov 3.6 05:54:28 10° S 05:58:35 58° E 06:02:45 10° NNE visible
02 Nov 4.9 17:24:51 10° NNW 17:28:38 34° W 17:32:22 10° SSW visible
